Mojave, CA

3:41 AM PDT on October 16, 2019 (GMT -0700)
Mojave

Weather History for KMHV - May, 2019

Change the Weather History Date:

Wednesday, May 8, 2019

  Actual Average Record
Temperature  
Mean Temperature 72 °F -  
Max Temperature 84 °F 78 °F 96 °F (2001)
Min Temperature 60 °F 54 °F 40 °F (1977)
Cooling Degree Days 7    
Growing Degree Days 22 (Base 50)    
Moisture  
Dew Point 43 °F    
Average Humidity 39    
Maximum Humidity 59    
Minimum Humidity 16    
Precipitation  
Precipitation 0.00 in - - ()
Sea Level Pressure  
Sea Level Pressure 29.88 in    
Wind  
Wind Speed 21 mph (WNW)    
Max Wind Speed 39 mph    
Max Gust Speed 51 mph    
Visibility 10 miles    
Events      
Averages and records for this station are not official NWS values.
T = Trace of Precipitation, MM = Missing Value Source: NWS Daily Summary

Daily Weather History Graph

Daily Weather History Graph

Search for Another Location

Airport or City:

Astronomy

May. 08, 2019 Rise Set
Actual Time 5:54 AM PDT 7:43 PM PDT
Civil Twilight 5:27 AM PDT 8:11 PM PDT
Nautical Twilight 4:54 AM PDT 8:44 PM PDT
Astronomical Twilight 4:18 AM PDT 9:20 PM PDT
Moon 8:59 AM PDT (5/8) 11:44 PM PDT (5/8)
Length of Visible Light 14h 44m
Length of Day
13h 48m
Waxing Crescent, 16% of the Moon is Illuminated
May 8
Waxing Crescent
May 11
First Quarter
May 18
Full
May 26
Last Quarter
Jun 3
New

Hourly Weather History & Observations

Time (PDT) Temp. Dew Point Humidity Pressure Visibility Wind Dir Wind Speed Gust Speed Precip Events Conditions
12:00 AM 62.6 °F 44.6 °F 52% 29.90 in 10.0 mi WNW 32.2 mph 48.3 mph N/A   Clear
12:20 AM 62.6 °F 44.6 °F 52% 29.89 in 10.0 mi WNW 39.1 mph 50.6 mph N/A   Clear
12:40 AM 62.6 °F 46.4 °F 55% 29.90 in 10.0 mi WNW 34.5 mph 46.0 mph N/A   Clear
1:00 AM 62.6 °F 46.4 °F 55% 29.91 in 10.0 mi WNW 32.2 mph 44.9 mph N/A   Clear
1:20 AM 62.6 °F 46.4 °F 55% 29.91 in 10.0 mi WNW 27.6 mph 38.0 mph N/A   Clear
1:40 AM 62.6 °F 46.4 °F 55% 29.90 in 10.0 mi WNW 29.9 mph 39.1 mph N/A   Clear
2:00 AM 62.6 °F 46.4 °F 55% 29.91 in 10.0 mi WNW 27.6 mph 34.5 mph N/A   Clear
2:20 AM 62.6 °F 46.4 °F 55% 29.91 in 10.0 mi WNW 29.9 mph 38.0 mph N/A   Scattered Clouds
2:40 AM 60.8 °F 46.4 °F 59% 29.91 in 10.0 mi WNW 26.5 mph 34.5 mph N/A   Partly Cloudy
3:00 AM 60.8 °F 46.4 °F 59% 29.91 in 10.0 mi WNW 26.5 mph 33.4 mph N/A   Clear
3:20 AM 60.8 °F 46.4 °F 59% 29.91 in 10.0 mi WNW 23.0 mph 31.1 mph N/A   Clear
3:40 AM 60.8 °F 46.4 °F 59% 29.92 in 10.0 mi WNW 18.4 mph 26.5 mph N/A   Partly Cloudy
4:00 AM 60.8 °F 46.4 °F 59% 29.92 in 10.0 mi NW 24.2 mph - N/A   Clear
4:20 AM 60.8 °F 44.6 °F 55% 29.93 in 10.0 mi NNW 13.8 mph 23.0 mph N/A   Clear
4:40 AM 62.6 °F 44.6 °F 52% 29.93 in 10.0 mi NNW 11.5 mph 19.6 mph N/A   Clear
5:00 AM 60.8 °F 44.6 °F 55% 29.92 in 10.0 mi NW 20.7 mph 27.6 mph N/A   Clear
5:20 AM 62.6 °F 44.6 °F 52% 29.93 in 10.0 mi WNW 19.6 mph - N/A   Clear
5:40 AM 60.8 °F 42.8 °F 52% 29.93 in 10.0 mi NW 8.1 mph 21.9 mph N/A   Clear
6:00 AM 60.8 °F 42.8 °F 52% 29.93 in 10.0 mi NW 11.5 mph 21.9 mph N/A   Clear
6:20 AM 60.8 °F 44.6 °F 55% 29.93 in 10.0 mi NW 13.8 mph - N/A   Clear
6:40 AM 62.6 °F 42.8 °F 48% 29.94 in 10.0 mi NW 9.2 mph 16.1 mph N/A   Clear
7:00 AM 62.6 °F 42.8 °F 48% 29.95 in 10.0 mi NW 5.8 mph 15.0 mph N/A   Clear
7:20 AM 64.4 °F 42.8 °F 45% 29.95 in 10.0 mi East 3.5 mph 15.0 mph N/A   Clear
7:40 AM 66.2 °F 42.8 °F 43% 29.96 in 10.0 mi Variable 5.8 mph - N/A   Clear
8:00 AM 66.2 °F 42.8 °F 43% 29.96 in 10.0 mi Variable 4.6 mph 16.1 mph N/A   Clear
8:20 AM 68.0 °F 42.8 °F 40% 29.96 in 10.0 mi NW 10.4 mph 19.6 mph N/A   Clear
8:40 AM 69.8 °F 42.8 °F 38% 29.96 in 10.0 mi NW 9.2 mph 15.0 mph N/A   Clear
9:00 AM 71.6 °F 42.8 °F 35% 29.95 in 10.0 mi NW 9.2 mph - N/A   Clear
9:20 AM 71.6 °F 42.8 °F 35% 29.95 in 10.0 mi Calm Calm - N/A   Clear
9:40 AM 73.4 °F 42.8 °F 33% 29.95 in 10.0 mi NW 10.4 mph - N/A   Clear
10:00 AM 75.2 °F 42.8 °F 31% 29.95 in 10.0 mi Variable 4.6 mph - N/A   Clear
10:20 AM 75.2 °F 41.0 °F 29% 29.95 in 10.0 mi Variable 4.6 mph - N/A   Clear
10:40 AM 75.2 °F 41.0 °F 29% 29.95 in 10.0 mi Calm Calm - N/A   Clear
11:00 AM 75.2 °F 39.2 °F 27% 29.94 in 10.0 mi Variable 3.5 mph - N/A   Clear
11:20 AM 77.0 °F 37.4 °F 24% - 10.0 mi North - - N/A   Clear
11:40 AM 78.8 °F 33.8 °F 20% 29.94 in 10.0 mi ENE 6.9 mph 13.8 mph N/A   Unknown
12:00 PM 78.8 °F 35.6 °F 21% 29.93 in 10.0 mi Calm Calm - N/A   Clear
12:20 PM 78.8 °F 32.0 °F 18% 29.92 in 10.0 mi East 8.1 mph - N/A   Clear
12:40 PM 80.6 °F 32.0 °F 17% 29.91 in 10.0 mi ESE 8.1 mph - N/A   Clear
1:00 PM 78.8 °F 32.0 °F 18% 29.90 in 10.0 mi Calm Calm - N/A   Clear
1:20 PM 80.6 °F 32.0 °F 17% 29.89 in 10.0 mi East 8.1 mph - N/A   Clear
1:40 PM 80.6 °F 32.0 °F 17% 29.88 in 10.0 mi Calm Calm 13.8 mph N/A   Clear
2:00 PM 82.4 °F 32.0 °F 16% 29.87 in 10.0 mi SW 8.1 mph 16.1 mph N/A   Clear
2:20 PM 84.2 °F 37.4 °F 19% 29.86 in 10.0 mi SSW 10.4 mph - N/A   Clear
2:40 PM 84.2 °F 39.2 °F 20% 29.85 in 10.0 mi WNW 15.0 mph 21.9 mph N/A   Clear
3:00 PM 84.2 °F 41.0 °F 22% 29.84 in 10.0 mi WNW 13.8 mph 20.7 mph N/A   Clear
3:20 PM 84.2 °F 42.8 °F 23% 29.83 in 10.0 mi WNW 20.7 mph - N/A   Clear
3:40 PM 82.4 °F 42.8 °F 25% 29.83 in 10.0 mi WNW 17.3 mph 25.3 mph N/A   Clear
4:00 PM 82.4 °F 46.4 °F 28% 29.82 in 10.0 mi WNW 19.6 mph - N/A   Clear
4:20 PM 80.6 °F 46.4 °F 30% 29.82 in 10.0 mi WNW 18.4 mph 24.2 mph N/A   Clear
4:40 PM 80.6 °F 46.4 °F 30% 29.82 in 10.0 mi West 18.4 mph 25.3 mph N/A   Clear
5:00 PM 78.8 °F 46.4 °F 32% 29.81 in 10.0 mi WNW 20.7 mph 27.6 mph N/A   Clear
5:20 PM 78.8 °F 46.4 °F 32% 29.81 in 10.0 mi WNW 24.2 mph 31.1 mph N/A   Clear
5:40 PM 77.0 °F 46.4 °F 34% 29.81 in 10.0 mi WNW 25.3 mph 31.1 mph N/A   Clear
6:00 PM 75.2 °F 46.4 °F 36% 29.80 in 10.0 mi WNW 26.5 mph 34.5 mph N/A   Clear
6:20 PM 75.2 °F 46.4 °F 36% 29.80 in 10.0 mi WNW 29.9 mph 38.0 mph N/A   Clear
6:40 PM 73.4 °F 46.4 °F 38% 29.80 in 10.0 mi WNW 26.5 mph 36.8 mph N/A   Clear
7:00 PM 71.6 °F 46.4 °F 41% 29.80 in 10.0 mi West 21.9 mph 32.2 mph N/A   Clear
7:20 PM 71.6 °F 46.4 °F 41% 29.81 in 10.0 mi West 21.9 mph 29.9 mph N/A   Clear
7:40 PM 69.8 °F 44.6 °F 40% 29.82 in 10.0 mi WSW 13.8 mph 24.2 mph N/A   Clear
8:00 PM 69.8 °F 44.6 °F 40% 29.81 in 10.0 mi West 21.9 mph 28.8 mph N/A   Clear
8:20 PM 69.8 °F 44.6 °F 40% 29.81 in 10.0 mi WNW 21.9 mph 28.8 mph N/A   Clear
8:40 PM 68.0 °F 42.8 °F 40% 29.81 in 10.0 mi WNW 15.0 mph 29.9 mph N/A   Clear
9:00 PM 68.0 °F 42.8 °F 40% 29.81 in 10.0 mi WNW 19.6 mph 33.4 mph N/A   Clear
9:20 PM 68.0 °F 42.8 °F 40% 29.81 in 10.0 mi NW 18.4 mph 31.1 mph N/A   Clear
9:40 PM 66.2 °F 46.4 °F 49% 29.81 in 10.0 mi WNW 23.0 mph 32.2 mph N/A   Clear
10:00 PM 66.2 °F 46.4 °F 49% 29.81 in 10.0 mi WNW 28.8 mph 35.7 mph N/A   Clear
10:20 PM 66.2 °F 44.6 °F 46% 29.81 in 10.0 mi WNW 23.0 mph 36.8 mph N/A   Clear
10:40 PM 66.2 °F 42.8 °F 43% 29.80 in 10.0 mi NW 24.2 mph 34.5 mph N/A   Clear
11:00 PM 66.2 °F 42.8 °F 43% 29.80 in 10.0 mi WNW 21.9 mph 29.9 mph N/A   Clear
11:20 PM 66.2 °F 44.6 °F 46% 29.80 in 10.0 mi WNW 21.9 mph 33.4 mph N/A   Clear
11:40 PM 66.2 °F 44.6 °F 46% 29.80 in 10.0 mi WNW 23.0 mph 28.8 mph N/A   Clear